Location: Newark
(30.1000°N, 109.4667°E)
Time: 01:45:22
(UTC+00:00)

Vanguard 2 Rocket - Pass Details

Date: 18 February 2020
Orbit: 554 x 3326 km, 32.9° (Epoch: 06 April)

Event Time Altitude Azimuth Distance (km) Brightness Sun altitude
Rises 15:55:52 0° 271° (W) 6,204 11.4 -66.9°
Reaches altitude 10° 16:00:41 10° 273° (W) 4,760 10.6 -67.5°
Enters shadow 16:01:32 12° 274° (W) 4,496 10.5 -67.6°
